ECMWFNIL_con_mucape_030.txt.gz
CAPE
2 2 1 0 0 0 0 0 0 0 0 5 3 0 0 0 0 0 5 2 0 0 0 0 0 0 0 0 0 1 4 0 0 0 0 13 16 12 10 9 8 5
0 0 0 0 0 0 0 0 0 1 3 5 1 0 0 0 0 0 4 3 0 0 0 0 0 0 0 0 1 3 3 3 0 0 0 3 19 14 11 11 11 7
0 0 0 0 0 0 0 0 1 1 4 1 0 0 0 0 0 8 14 8 1 0 0 0 0 0 0 0 2 8 9 0 0 0 0 0 2 10 10 12 13 10
0 0 0 0 0 0 0 0 0 0 0 0 0 0 0 0 0 1 2 5 3 0 0 0 0 0 0 2 2 8 6 0 0 0 0 0 0 3 4 9 18 12
0 0 0 0 0 0 0 0 0 1 0 0 0 0 2 2 15 13 3 0 0 0 0 0 0 0 1 2 4 9 6 2 0 3 3 1 0 1 2 4 11 14
0 0 0 0 0 0 0 1 2 1 0 0 0 1 11 28 17 13 5 1 0 0 0 0 0 0 0 0 2 6 10 10 3 3 2 3 4 0 0 10 12 9
1 0 0 0 0 5 2 1 0 0 0 0 2 20 2 0 0 16 13 6 2 1 0 0 0 0 0 0 2 4 10 10 7 4 3 2 1 0 3 8 9 2
0 0 0 0 0 0 0 0 0 0 0 4 0 0 0 0 1 12 12 12 9 7 4 1 0 0 0 0 0 5 8 6 7 7 1 2 0 0 0 0 3 3
0 0 0 0 0 0 0 0 0 0 0 0 0 0 0 0 2 14 10 4 9 14 12 7 2 0 0 0 2 5 9 9 8 10 7 1 0 0 0 0 2 2
4 3 0 0 0 0 0 0 0 0 0 0 0 0 0 0 0 17 7 8 6 6 14 18 10 4 1 1 4 1 9 9 8 8 5 3 0 0 0 0 0 3
2 0 0 0 0 0 0 0 0 0 0 0 0 0 0 0 13 4 15 6 0 0 0 4 4 3 3 3 3 2 2 1 2 2 3 4 4 2 0 0 0 0
1 1 0 0 0 0 0 0 0 0 0 0 0 0 0 0 0 11 0 0 0 0 0 3 6 3 0 0 0 0 0 0 0 0 1 6 8 7 1 0 0 0
2 0 0 0 0 0 0 0 2 4 3 3 3 2 0 0 0 0 0 0 0 0 0 0 1 0 0 0 0 0 0 0 0 0 0 2 7 12 4 2 8 3
0 0 0 0 0 0 0 0 0 0 0 0 0 0 0 0 0 0 0 0 0 0 0 0 0 0 0 0 0 0 0 0 0 0 0 1 8 13 7 2 8 4
0 0 0 0 0 0 0 0 0 0 0 0 0 0 0 0 0 0 0 0 0 0 0 0 0 0 0 0 0 0 0 0 0 0 0 0 5 9 9 4 1 0
0 0 0 0 0 0 0 0 0 0 0 0 0 0 0 0 0 0 0 1 1 0 0 0 0 0 0 0 0 0 0 0 0 0 0 0 0 4 8 7 2 0
0 1 2 1 1 2 1 1 0 0 0 0 0 1 0 0 0 0 0 0 0 2 1 1 0 0 0 0 0 2 10 4 0 0 0 0 0 5 9 7 4 4
2 5 4 2 3 2 1 2 1 1 1 0 0 0 0 0 0 0 0 0 1 2 2 2 2 1 2 2 2 5 8 12 4 0 0 0 0 1 4 7 7 6
7 6 2 2 4 2 2 2 1 0 0 1 0 0 0 0 1 0 0 2 2 2 1 0 0 1 3 3 5 7 10 20 11 1 0 0 0 1 2 1 1 2
7 4 3 4 3 2 3 3 1 0 0 0 0 2 2 1 1 1 1 1 3 4 3 1 2 2 4 6 6 1 0 1 0 0 0 0 0 0 0 1 1 0
5 2 6 5 3 3 1 0 0 1 1 0 0 1 0 0 1 0 0 1 2 1 3 2 0 2 2 4 4 2 2 0 1 0 0 0 0 0 0 0 1 1
3 6 6 3 1 0 1 0 0 0 0 0 1 0 1 2 5 4 3 3 4 2 3 2 2 7 7 4 1 1 0 0 1 0 0 0 0 2 4 5 4 2
7 7 4 2 2 3 3 2 1 0 0 0 1 2 4 2 0 1 1 2 2 2 1 2 2 0 2 2 1 1 1 1 2 2 0 0 0 1 2 2 3 4
8 3 3 4 3 2 1 0 0 1 0 0 1 3 2 2 0 0 2 1 0 0 0 0 0 0 0 2 1 0 0 0 0 0 0 0 0 0 0 0 0 0
3 4 4 2 0 0 0 1 2 0 0 0 0 0 0 3 12 14 12 3 2 0 0 0 1 0 2 3 4 3 1 1 0 0 0 1 0 0 0 0 0 0
3 4 2 1 2 2 1 1 0 0 0 0 1 2 3 0 0 0 1 2 2 1 0 3 4 2 5 7 8 8 2 0 1 4 4 3 2 2 2 3 10 11

ECMWFNIL_con_mucape_033.txt.gz
CAPE
4 12 19 3 2 3 0 0 0 0 0 0 0 0 1 1 0 0 0 0 0 0 0 0 0 0 0 0 0 3 4 1 0 0 0 0 2 0 0 8 17 21
2 1 6 1 2 1 0 0 0 0 0 0 0 0 0 0 0 0 0 0 0 0 0 0 0 2 1 0 0 0 0 0 0 4 4 4 4 3 0 4 8 18
0 0 0 0 0 0 0 0 0 0 0 0 0 0 0 0 0 0 0 0 0 3 3 2 1 2 3 1 0 0 0 0 0 3 8 3 2 3 0 0 9 13
0 0 1 0 0 0 0 0 0 0 0 0 0 0 0 0 0 0 0 0 3 36 30 19 7 2 0 0 1 0 0 0 0 4 3 1 4 0 0 1 8 13
2 2 0 0 0 0 0 0 0 0 0 0 0 0 0 0 0 0 2 24 16 12 28 28 20 8 4 2 0 1 1 5 3 1 4 3 5 2 0 0 4 11
2 2 0 0 0 0 0 0 0 0 0 0 0 0 0 0 0 0 0 0 2 4 22 20 16 14 9 4 2 3 4 3 2 0 0 0 0 2 1 0 2 3
2 0 0 0 0 0 0 0 0 0 0 0 0 0 0 0 0 0 0 0 2 2 8 7 5 8 8 7 4 2 2 0 0 0 0 0 0 3 2 0 0 0
0 0 0 1 0 0 0 0 0 0 0 0 0 0 0 0 0 0 0 0 0 2 6 8 5 2 11 7 2 1 2 0 0 1 2 2 5 7 5 4 1 0
0 1 2 0 0 0 0 0 0 0 0 0 0 0 0 0 0 0 0 0 0 2 8 6 2 0 1 6 6 6 4 2 0 0 3 10 12 10 7 8 7 6
4 3 1 2 0 0 0 0 0 0 0 0 0 0 0 0 0 0 0 0 6 1 0 3 2 0 1 3 4 6 4 4 3 2 2 7 10 12 10 10 7 2
2 2 0 0 0 0 0 0 0 0 0 0 2 3 4 0 1 2 3 1 0 0 1 2 2 0 2 4 6 6 7 2 0 1 4 6 7 4 4 5 4 3
1 0 0 0 0 0 0 0 0 0 0 0 0 0 0 0 0 0 2 0 0 0 0 2 4 3 2 3 4 5 7 8 6 6 4 0 0 0 0 0 1 2
0 0 0 0 0 0 0 0 0 0 0 0 0 0 0 0 0 0 0 0 0 0 0 0 1 3 3 3 4 5 5 7 4 3 1 0 0 0 0 0 0 0
1 1 0 0 2 2 1 1 1 0 0 0 0 0 0 0 0 0 0 0 0 0 0 0 0 0 0 0 2 3 2 2 0 0 0 0 0 0 0 0 0 0
2 2 2 4 4 4 3 2 1 1 0 0 0 0 0 0 0 0 0 0 0 0 0 0 0 0 0 0 0 1 3 1 2 1 1 0 0 0 0 0 0 0
2 2 3 4 3 2 2 2 1 1 1 1 1 0 0 0 0 0 0 0 0 0 0 0 0 0 1 2 3 1 4 4 3 1 0 0 0 0 0 0 0 0
2 2 3 2 2 2 2 2 2 1 1 1 0 0 0 0 0 0 0 0 0 0 0 0 0 0 1 4 5 5 4 2 2 0 0 0 0 0 0 0 0 0
2 3 4 3 2 3 2 1 1 1 1 1 1 0 0 0 0 0 0 0 1 1 2 2 1 2 8 9 10 9 7 5 3 3 3 1 0 0 0 0 0 0
2 4 4 2 3 3 1 1 2 2 1 1 0 0 0 0 0 1 0 0 1 1 0 1 0 2 6 10 10 9 8 5 3 2 6 6 2 0 0 0 0 0
3 4 3 3 3 1 2 4 2 1 0 0 0 0 0 0 0 0 0 0 0 1 1 0 1 1 6 8 9 9 8 5 2 2 6 14 13 7 3 1 0 0
3 3 3 3 2 2 3 1 0 0 1 1 1 0 0 0 0 2 3 2 0 0 0 1 1 3 6 7 9 9 8 7 4 6 6 13 16 10 3 1 0 0
2 2 3 2 2 3 1 1 1 1 1 0 1 2 4 2 0 3 5 4 3 4 4 4 2 2 4 5 6 7 7 3 2 1 2 2 2 3 1 1 0 0
2 2 3 2 2 2 1 1 0 0 0 1 3 6 2 0 0 0 3 3 5 3 5 6 5 3 2 4 5 7 5 5 3 1 2 1 1 1 2 1 0 0
2 2 3 2 2 1 0 0 1 0 0 0 0 0 0 0 0 1 0 0 0 1 0 0 0 3 4 3 6 0 0 1 1 2 3 3 2 2 2 1 0 0
1 0 0 0 0 0 1 4 2 2 1 0 2 1 0 0 0 0 0 0 0 1 2 3 0 1 1 1 1 1 2 0 3 6 5 4 1 0 0 1 0 1
0 0 0 0 1 0 0 0 0 0 1 1 0 1 2 3 1 0 0 1 0 0 1 1 1 3 2 5 4 1 1 1 3 4 6 6 4 1 1 1 0 0

ECMWFNIL_con_mucape_039.txt.gz
CAPE
0 0 5 5 4 4 1 0 1 3 2 2 2 1 0 0 0 0 0 0 0 0 0 0 0 0 0 0 0 0 0 0 0 0 0 0 0 1 9 10 16 18
3 4 8 3 0 2 4 4 4 4 5 5 4 2 0 0 0 0 0 0 0 0 1 2 0 0 0 0 0 0 0 0 0 0 0 5 9 12 13 9 10 9
0 1 1 0 3 10 4 4 6 6 3 2 1 0 1 4 0 0 0 0 0 0 0 0 0 0 0 0 0 0 0 1 1 4 9 10 10 14 14 16 12 10
1 3 4 7 8 7 8 12 7 0 0 0 0 5 4 0 1 0 0 0 0 0 0 0 0 0 4 4 6 5 5 5 7 14 15 17 15 17 15 17 16 8
4 5 3 2 1 3 4 2 0 2 2 3 3 3 4 2 0 0 0 0 0 0 0 0 0 0 0 0 0 0 0 0 2 13 16 14 14 17 17 21 17 14
1 5 0 0 0 0 0 0 1 0 1 0 0 3 0 0 0 0 0 0 0 0 0 0 0 0 0 0 0 0 0 0 0 3 14 17 15 14 19 19 13 8
0 0 0 0 0 0 0 0 0 2 0 0 1 0 0 0 0 0 0 0 0 0 0 0 0 0 0 0 0 0 0 0 1 18 12 18 20 15 18 12 7 5
0 0 0 0 0 0 0 0 0 0 0 0 0 0 0 0 0 0 0 0 0 0 0 0 0 0 0 0 0 0 0 8 4 1 2 2 4 7 12 9 2 9
0 0 0 0 1 3 3 5 5 6 6 4 2 1 1 0 0 0 1 3 6 6 10 12 8 2 0 0 0 4 7 0 1 4 1 1 1 4 13 8 8 24
0 0 0 0 2 4 3 4 6 7 7 6 7 8 9 7 4 2 2 3 0 0 0 0 0 5 2 0 0 0 0 1 4 2 1 1 0 1 4 6 4 4
0 1 2 2 3 4 5 5 6 5 6 6 7 6 6 6 6 4 2 0 0 0 0 0 0 0 0 0 0 0 0 1 1 0 2 1 1 0 2 5 2 6
1 0 1 2 2 3 4 5 5 4 5 5 6 4 4 4 3 2 2 0 0 0 0 0 0 0 0 0 0 0 0 0 1 3 5 5 5 8 10 6 4 14
0 0 0 1 2 3 4 4 4 4 5 4 4 4 4 3 3 1 0 1 0 0 0 0 0 0 0 0 0 0 0 0 1 2 4 7 8 12 12 9 9 7
1 1 1 2 3 3 3 3 3 3 3 3 3 3 2 2 2 2 1 1 0 0 0 0 0 0 0 0 0 0 0 0 1 0 2 8 11 18 16 11 8 7
0 1 1 3 2 3 2 2 3 3 2 2 2 2 2 2 1 2 2 1 0 0 0 0 0 0 0 0 0 0 0 0 0 0 0 3 4 11 10 1 5 3
1 3 2 3 3 2 2 3 2 2 3 2 2 2 2 1 1 1 1 1 0 0 0 0 0 0 0 4 8 2 0 0 0 0 0 0 2 3 2 1 3 6
1 3 3 1 1 3 2 2 2 2 2 2 2 1 0 0 1 1 1 0 0 0 0 0 0 0 2 10 12 16 12 6 3 2 2 1 5 2 4 6 2 10
1 1 2 2 1 1 2 2 2 1 1 1 0 0 0 0 0 0 0 0 0 0 0 0 0 0 7 11 16 18 18 9 6 6 4 3 4 2 4 8 9 12
0 2 2 2 2 1 1 2 1 1 0 0 0 0 0 0 0 0 0 0 0 0 0 0 0 1 9 13 14 18 22 22 10 8 6 4 5 7 4 8 9 9
1 2 1 1 1 2 2 1 1 1 0 1 1 0 0 2 2 0 0 0 0 0 0 2 1 0 6 10 13 16 18 21 16 13 8 5 4 6 5 6 9 9
1 1 1 1 1 1 2 1 1 0 0 0 0 0 0 0 0 0 0 0 0 0 3 1 0 2 6 8 10 11 14 13 11 13 11 10 8 6 4 4 4 5
0 1 0 0 0 0 0 0 0 0 0 0 0 0 0 0 0 0 0 0 0 0 0 0 0 2 5 8 8 6 8 6 4 4 6 8 9 8 8 3 2 1
1 0 0 0 0 1 0 0 1 0 0 0 0 0 0 0 0 0 0 0 0 0 0 0 0 2 3 6 7 11 9 5 3 2 3 4 5 6 8 8 4 2
0 0 0 0 0 0 0 0 1 0 0 0 0 0 0 0 0 0 0 1 0 0 0 1 0 0 0 1 5 9 7 6 2 5 6 4 3 3 3 4 4 3
0 0 0 0 0 0 0 0 0 0 0 0 0 0 0 0 0 0 0 0 0 0 2 4 0 1 0 0 2 5 7 5 3 4 7 10 8 2 2 2 2 2
0 0 0 0 0 0 0 0 0 0 0 0 0 0 0 0 0 0 0 0 0 2 4 3 2 4 2 1 3 5 8 7 2 2 4 9 7 4 2 2 3 3

ECMWFNIL_con_mucape_042.txt.gz
CAPE
2 0 0 0 3 7 6 6 8 12 14 16 17 12 12 13 11 10 9 1 1 0 0 0 0 0 0 0 0 0 0 0 0 0 0 0 0 0 0 0 0 0
0 0 2 0 4 8 5 2 6 9 12 16 20 18 14 10 5 5 2 6 11 8 3 0 1 4 8 10 2 1 0 0 0 0 0 0 0 0 0 0 0 0
0 0 0 0 4 2 1 0 0 0 1 4 9 15 12 10 6 8 14 16 6 2 3 1 0 0 0 0 8 4 0 0 0 0 0 0 0 0 0 0 2 3
0 0 0 0 0 1 1 0 0 0 0 0 3 5 7 6 6 4 6 14 6 3 0 0 0 0 0 0 0 1 5 6 2 3 6 7 13 12 10 8 8 8
0 0 0 0 0 0 0 1 0 0 2 2 4 5 6 6 6 5 2 0 0 0 0 0 0 0 0 0 0 0 0 0 0 0 0 0 0 3 6 8 10 13
0 0 0 0 0 0 0 0 0 0 3 5 6 6 5 4 4 3 2 1 0 0 0 0 0 0 0 0 0 0 0 0 0 0 0 0 0 0 6 13 12 13
0 0 0 0 0 0 0 1 4 10 9 11 12 11 11 6 5 5 5 5 3 0 0 0 0 0 0 0 0 0 0 0 0 0 0 0 0 0 0 1 7 12
0 0 0 0 0 0 4 3 8 9 8 7 11 9 11 10 10 9 7 3 4 4 3 2 6 7 4 0 0 0 0 0 0 0 0 0 0 0 1 24 15 19
0 0 0 0 0 0 2 3 4 5 8 10 9 9 9 12 11 12 13 10 10 6 4 6 13 18 18 15 12 10 8 6 4 1 0 0 0 10 22 17 5 3
0 0 0 0 0 1 1 2 4 5 6 7 8 9 9 9 7 7 8 9 8 8 8 3 2 4 3 6 4 4 16 22 21 19 17 18 24 22 17 5 3 2
0 0 0 0 0 0 2 3 4 5 6 7 7 8 8 9 9 7 6 7 5 4 4 4 4 4 4 3 2 4 4 2 3 3 2 2 6 9 4 3 4 5
0 0 0 0 0 1 2 2 5 5 5 5 5 6 5 6 7 7 7 5 4 1 2 2 2 2 3 3 1 0 2 0 0 0 0 2 4 2 5 8 6 4
0 0 0 0 0 0 2 3 4 4 4 4 4 5 4 5 5 6 5 4 4 4 3 2 2 2 2 2 0 0 0 0 0 0 0 0 0 0 2 3 5 4
0 0 0 0 0 1 2 2 4 3 3 4 5 5 5 4 4 4 5 5 5 5 3 3 3 3 2 1 1 1 1 0 0 0 0 0 0 0 1 0 3 3
0 0 0 0 0 1 0 2 2 3 3 2 2 3 4 3 3 4 4 4 4 3 3 3 4 3 3 2 3 2 1 0 0 0 0 0 0 0 0 2 2 2
0 0 0 0 0 1 1 1 1 2 2 2 1 1 2 2 2 2 3 3 3 2 2 3 3 3 5 8 10 4 2 1 0 0 0 0 0 0 0 0 2 2
0 0 0 0 0 0 1 1 2 2 2 1 1 1 1 2 2 2 2 2 2 1 2 2 2 2 7 12 16 21 14 5 5 3 0 0 0 0 0 0 1 0
0 0 0 0 0 0 1 1 1 1 1 1 1 0 0 1 1 1 1 1 1 1 1 0 0 2 10 14 18 22 23 12 8 7 7 7 5 4 3 1 0 0
0 1 1 0 0 1 1 2 1 0 0 0 0 0 1 1 0 0 0 0 0 1 1 0 0 2 8 13 16 20 22 18 8 7 7 6 7 7 6 5 3 2
0 1 1 1 0 0 1 1 0 1 1 0 0 0 1 0 0 0 0 0 0 0 0 0 0 0 6 10 12 13 16 16 7 6 6 5 5 6 6 6 7 6
0 0 0 1 0 0 0 0 0 0 0 0 0 1 1 1 0 0 0 1 1 2 1 1 1 2 6 8 10 12 10 9 5 4 4 4 3 4 6 6 6 7
0 1 1 0 0 0 0 0 0 0 0 0 1 0 0 0 0 0 0 0 0 1 1 0 0 1 4 5 7 11 15 6 0 1 2 3 4 4 4 7 9 8
0 0 1 1 0 1 0 0 0 0 0 0 0 0 0 0 0 0 0 0 0 0 0 0 0 0 0 2 6 11 11 6 6 1 0 1 1 2 3 4 8 11
1 1 2 2 2 0 0 0 0 0 0 0 0 0 0 0 0 0 0 0 0 0 0 1 1 0 0 1 3 9 10 9 7 5 0 3 1 2 2 3 5 11
1 2 2 2 2 1 1 0 0 0 0 0 0 0 0 0 0 0 0 0 0 0 0 2 2 0 0 0 1 8 9 7 7 4 6 3 13 11 6 3 4 6
1 1 2 1 2 1 0 0 0 0 0 1 0 0 0 0 0 0 0 0 0 1 0 7 6 1 0 0 2 11 10 10 8 5 6 3 10 11 18 6 3 3